Regional Weather Roundup
Issued by NWS Green Bay, WI

Home | Current Version | Previous Version | Graphics & Text | Print | Product List | Glossary Off
Versions: 1 2 3 4 5 6 7 8 9 10 11 12 13 14 15 16 17 18 19 20 21 22 23 24 25 26 27 28 29 30 31 32 33 34 35 36 37 38 39 40 41 42 43 44 45 46 47 48 49 50

375
ASUS43 KGRB 200600
RWRGRB

NORTH-CENTRAL AND NORTHEAST WISCONSIN REGIONAL WEATHER ROUNDUP
NATIONAL WEATHER SERVICE GREEN BAY WI
1200 AM CST MON FEB 20 2017

WIZ005-009-010>012-018-019-200700-
NORTH CENTRAL WISCONSIN

CITY           SKY/WX    TMP DP  RH WIND       PRES   REMARKS
IRONWOOD       MOCLDY    47  31  53 SE9G20    30.01R
MANITOWISH WTR NOT AVBL
ARBOR VITAE    NOT AVBL
EAGLE RIVER    NOT AVBL
LAND O LAKES   CLOUDY    40  31  70 SE8       30.09R
RHINELANDER    CLOUDY    38  32  79 E9        30.06F
PHILLIPS       PTCLDY    43  33  66 SE7       30.01S
ANTIGO         NOT AVBL
TOMAHAWK       NOT AVBL
MERRILL        NOT AVBL
$$

WIZ013-073-200700-
NORTHEAST WISCONSIN

CITY           SKY/WX    TMP DP  RH WIND       PRES   REMARKS
IRON MOUNTAIN  PTCLDY    34  27  75 CALM      30.13R
MARINETTE      CLOUDY    29  28  96 CALM      30.17R
$$

WIZ017-030-035>037-045-200700-
CENTRAL WISCONSIN

CITY           SKY/WX    TMP DP  RH WIND       PRES   REMARKS
MEDFORD        NOT AVBL
WAUSAU         PTCLDY    40  32  73 SE13      30.06S
MOSINEE        NOT AVBL
MARSHFIELD     CLOUDY    43  33  68 SE7       30.03S
WISC RAPIDS    CLOUDY    43  34  70 E8        30.06S
STEVENS POINT  NOT AVBL
WAUPACA        CLOUDY    39  31  72 CALM      30.12R
SHAWANO        CLOUDY    35  31  87 CALM      30.14R
CLINTONVILLE   MOCLDY    34  30  86 E3        30.12S
WAUTOMA        CLOUDY    39  32  76 NE5       30.09S
$$

WIZ038-039-048-051-200700-
FOX VALLEY

CITY           SKY/WX    TMP DP  RH WIND       PRES   REMARKS
NWS GREEN BAY  CLOUDY    35  31  85 E3        30.14R
APPLETON       NOT AVBL
OSHKOSH        PTCLDY    37  29  72 SE3       30.11R
FOND DU LAC    PTCLDY    39  29  67 SE8       30.11R
$$

WIZ022-050-052-200700-
EAST CENTRAL WISCONSIN

CITY           SKY/WX    TMP DP  RH WIND       PRES   REMARKS
EPHRAIM        NOT AVBL
WASHINGTON ISL NOT AVBL
STURGEON BAY   CLOUDY    37  33  85 E7        30.16R
MANITOWOC      NOT AVBL
SHEBOYGAN      PTCLDY    30  28  92 CALM      30.14R
$$

LMZ563-521-522-541>543-200700-
LAKESHORE

STATION/POSITION TIME  TEMP    WIND        PRES    VSBY  WAVE
                       AIR SEA DIR/SP/G                  HT/PER
                 (UTC) (F)     (DEG/KT/KT) (MB)    (MI)  (FT/S)
SHEBOYGAN LKSHOR 0500   39     260/  1/  1 1020.7R
KEWAUNEE LKSHORE 0530   33      CALM  /  3 1020.2S
NORTHPORT PIER   0540   36     160/  3/  5 1021.7R
SISTER BAY LKSHO 0505   39     120/  9/ 13   N/A
CHAMBERS ISLAND  0540   30      CALM  /  2 1020.7R
MENOMINEE LKSHOR 0530   34      10/  3/  5 1020.3R
$$




USA.gov is the U.S. government's official web portal to all federal, state and local government web resources and services.